一网星座-0299星 (ONEWEB-0299 )

导读 | 星芒AI

ONEWEB-0299 是 OneWeb 卫星星座计划中的一颗低轨通信卫星,旨在为全球提供高速互联网服务。该卫星采用标准化设计,由阿丽亚娜集团制造,搭载星间激光通信技术,以提升网络效率和覆盖能力。2023 年发射入轨后,ONEWEB-0299 成功加入 OneWeb 的卫星群,支持偏远和农村地区的宽带接入。该星座计划最终部署数百颗卫星,致力于实现全球无缝连接,服务于政府、航空、海运及移动通信等领域。

基本信息
目录编号:
49088
目录名称:
ONEWEB-0299
国际标识:
2021-075P
轨道中心:
EARTH
卫星名称:
一网星座-0299星
卫星全名:
一网星座-0299星 (ONEWEB-0299 )
卫星状态:
在轨 (已飞行1577 天)
发射日期:
2021-08-21 UTC
国别 :
英国 (GB)
星等 :
--
轨道信息
数据来源 国际轨道数据
星历时间: 2025-12-15T05:31:04+0800
21小时前
查看轨道信息
半长轴: 7571.857km
偏心率: 0.00017
轨道倾角: 87.912°
近地点辐角 105.280°
升交点赤经 42.478°
平近点角 254.852°
近地点: 1192.434km
远地点: 1195.01km
周期: 109.286分钟
每日圈数: 13.176473
详细信息
平衡模式:
三轴稳定
覆盖范围:
全球
运营商:
一网卫星公司
运营商所在国:
英国
制造商(研发单位):
一网卫星公司
制造商所在国:
英国
使用方式:
暂无
卫星简介
OneWeb卫星网络由648颗重约125公斤的微型卫星组成,运行在1200公里的轨道上。 每颗卫星都能够提供至少每秒8千兆位的吞吐量,以使用其高吞吐量的Ku频段有效载荷为家庭和移动平台提供互联网接入。该卫星仍在工作。
2D轨道图
3D轨道图
轨道高度分析图
轨道倾角分析图
轨道综合分析图
查看轨道综合分析图